Location: Boullarre
(49.1305°N, 3.0047°E)
Time: 20:32:37
(UTC+00:00)

MINOTAUR 4 R/B - Pass Details

Date: 03 February 2023
Orbit: 448 x 453 km, 98.0° (Epoch: 21 March)

Event Time Altitude Azimuth Distance (km) Brightness Sun altitude
Exits shadow 17:18:51 - 73° (ENE) 1,814 6.3 -5.6°
Enters shadow 18:36:21 -29° 11° (N) 7,131 9.9 -17.9°
Maximum altitude 18:53:09 84° 287° (WNW) 458 3.8 -20.7°
